Athens, TX

11:06 AM CDT on July 23, 2017 (GMT -0500)
Athens

Weather History for KF44 - March, 2013

Change the Weather History Date:

Sunday, March 3, 2013

  Actual Average (KTYR) Record (KTYR)
Temperature  
Mean Temperature 47 °F -  
Max Temperature 66 °F 61 °F 84 °F (1976)
Min Temperature 28 °F 42 °F 12 °F (1943)
Degree Days  
Heating Degree Days 18    
Moisture  
Dew Point 29 °F    
Average Humidity 54    
Maximum Humidity 93    
Minimum Humidity 26    
Precipitation  
Precipitation 0.00 in - - ()
Sea Level Pressure  
Sea Level Pressure 30.09 in    
Wind  
Wind Speed 5 mph (South)    
Max Wind Speed 20 mph    
Max Gust Speed 26 mph    
Visibility 10 miles    
Events      
Averages and records for this station are not official NWS values.
T = Trace of Precipitation, MM = Missing Value Source: NWS Daily Summary

Daily Weather History Graph

Daily Weather History Graph

Search for Another Location

Airport or City:

Trip Planner

Search our weather history database for the weather conditions in past years. The results will help you decide how hot, cold, wet, or windy it might be!

Date:

Astronomy

Mar. 03, 2013 Rise Set
Actual Time 6:48 AM CST 6:22 PM CST
Civil Twilight 6:23 AM CST 6:47 PM CST
Nautical Twilight 5:55 AM CST 7:15 PM CST
Astronomical Twilight 5:26 AM CST 7:44 PM CST
Moon No Moon Rise 10:27 AM CST (3/3)
Length of Visible Light 12h 23m
Length of Day
11h 34m
Waning Gibbous, 63% of the Moon is Illuminated
Mar 3
Waning Gibbous
Mar 4
Last Quarter
Mar 11
New
Mar 19
First Quarter
Mar 27
Full

Hourly Weather History & Observations

Time (CST) Temp. Windchill Dew Point Humidity Pressure Visibility Wind Dir Wind Speed Gust Speed Precip Events Conditions
12:15 AM 30.2 °F - 26.6 °F 86% 30.25 in 10.0 mi Calm Calm - N/A   Clear
12:35 AM 32.0 °F - 26.6 °F 80% 30.24 in 10.0 mi Calm Calm - N/A   Clear
12:55 AM 30.2 °F - 26.6 °F 86% 30.24 in 10.0 mi Calm Calm - N/A   Clear
1:15 AM 30.2 °F - 26.6 °F 86% 30.24 in 10.0 mi Calm Calm - N/A   Clear
1:35 AM 30.2 °F - 26.6 °F 86% 30.24 in 10.0 mi Calm Calm - N/A   Clear
1:55 AM 30.2 °F - 26.6 °F 86% 30.23 in 10.0 mi Calm Calm - N/A   Clear
2:15 AM 30.2 °F - 26.6 °F 86% 30.23 in 10.0 mi Calm Calm - N/A   Clear
2:35 AM 30.2 °F - 26.6 °F 86% 30.23 in 10.0 mi Calm Calm - N/A   Clear
2:55 AM 30.2 °F - 26.6 °F 86% 30.23 in 10.0 mi Calm Calm - N/A   Clear
3:15 AM 30.2 °F - 26.6 °F 86% 30.23 in 10.0 mi Calm Calm - N/A   Clear
3:35 AM 30.2 °F - 24.8 °F 80% 30.22 in 10.0 mi Calm Calm - N/A   Clear
3:55 AM 28.4 °F - 24.8 °F 86% 30.23 in 10.0 mi Calm Calm - N/A   Clear
4:15 AM 28.4 °F - 24.8 °F 86% 30.22 in 10.0 mi Calm Calm - N/A   Clear
4:35 AM 28.4 °F - 26.6 °F 93% 30.22 in 10.0 mi Calm Calm - N/A   Clear
4:55 AM 28.4 °F - 26.6 °F 93% 30.22 in 10.0 mi Calm Calm - N/A   Clear
5:15 AM 28.4 °F - 26.6 °F 93% 30.23 in 10.0 mi Calm Calm - N/A   Clear
5:35 AM 28.4 °F - 26.6 °F 93% 30.22 in 10.0 mi Calm Calm - N/A   Clear
5:55 AM 28.4 °F - 26.6 °F 93% 30.22 in 10.0 mi Calm Calm - N/A   Clear
6:15 AM 28.4 °F - 26.6 °F 93% 30.22 in 10.0 mi Calm Calm - N/A   Clear
6:35 AM 28.4 °F - 26.6 °F 93% 30.22 in 10.0 mi Calm Calm - N/A   Clear
6:55 AM 28.4 °F - 24.8 °F 86% 30.22 in 10.0 mi Calm Calm - N/A   Clear
7:15 AM 30.2 °F - 26.6 °F 86% 30.23 in 10.0 mi Calm Calm - N/A   Clear
7:35 AM 32.0 °F - 28.4 °F 87% 30.23 in 10.0 mi Calm Calm - N/A   Clear
7:55 AM 35.6 °F 31.7 °F 28.4 °F 75% 30.23 in 10.0 mi South 4.6 mph - N/A   Clear
8:15 AM 39.2 °F 33.6 °F 26.6 °F 61% 30.22 in 10.0 mi South 8.1 mph - N/A   Clear
8:35 AM 41.0 °F 35.2 °F 24.8 °F 53% 30.22 in 10.0 mi South 9.2 mph - N/A   Clear
8:55 AM 44.6 °F 37.8 °F 23.0 °F 43% 30.22 in 10.0 mi South 15.0 mph - N/A   Clear
9:15 AM 44.6 °F 38.8 °F 23.0 °F 43% 30.22 in 10.0 mi SSW 11.5 mph 18.4 mph N/A   Clear
9:35 AM 46.4 °F 41.5 °F 23.0 °F 40% 30.21 in 10.0 mi South 10.4 mph 18.4 mph N/A   Clear
9:55 AM 50.0 °F - 24.8 °F 37% 30.20 in 10.0 mi South 8.1 mph 17.3 mph N/A   Clear
10:15 AM 51.8 °F - 24.8 °F 35% 30.19 in 10.0 mi SSE 11.5 mph - N/A   Clear
10:35 AM 53.6 °F - 24.8 °F 33% 30.19 in 10.0 mi South 12.7 mph 19.6 mph N/A   Clear
10:55 AM 53.6 °F - 26.6 °F 35% 30.18 in 10.0 mi South 9.2 mph 16.1 mph N/A   Clear
11:15 AM 55.4 °F - 28.4 °F 36% 30.17 in 10.0 mi South 10.4 mph 17.3 mph N/A   Clear
11:35 AM 57.2 °F - 26.6 °F 31% 30.15 in 10.0 mi South 9.2 mph - N/A   Clear
11:55 AM 59.0 °F - 28.4 °F 31% 30.14 in 10.0 mi SSE 11.5 mph 16.1 mph N/A   Clear
12:15 PM 60.8 °F - 28.4 °F 29% 30.12 in 10.0 mi South 13.8 mph - N/A   Clear
12:35 PM 60.8 °F - 28.4 °F 29% 30.10 in 10.0 mi South 13.8 mph 20.7 mph N/A   Clear
12:55 PM 62.6 °F - 28.4 °F 27% 30.08 in 10.0 mi South 11.5 mph 19.6 mph N/A   Clear
1:15 PM 62.6 °F - 28.4 °F 27% 30.07 in 10.0 mi South 10.4 mph 19.6 mph N/A   Clear
1:55 PM 64.4 °F - 30.2 °F 28% 30.04 in 10.0 mi SSW 9.2 mph 17.3 mph N/A   Clear
2:15 PM 64.4 °F - 30.2 °F 28% 30.03 in 10.0 mi South 12.7 mph 23.0 mph N/A   Clear
2:35 PM 64.4 °F - 30.2 °F 28% 30.02 in 10.0 mi South 11.5 mph 21.9 mph N/A   Clear
2:55 PM 66.2 °F - 30.2 °F 26% 30.01 in 10.0 mi SSW 13.8 mph 19.6 mph N/A   Clear
3:35 PM 64.4 °F - 30.2 °F 28% 29.98 in 10.0 mi South 16.1 mph 23.0 mph N/A   Clear
3:55 PM 64.4 °F - 30.2 °F 28% 29.97 in 10.0 mi South 11.5 mph 21.9 mph N/A   Clear
4:15 PM 64.4 °F - 32.0 °F 30% 29.96 in 10.0 mi South 17.3 mph 25.3 mph N/A   Clear
4:35 PM 66.2 °F - 32.0 °F 28% 29.96 in 10.0 mi South 11.5 mph 23.0 mph N/A   Clear
4:55 PM 64.4 °F - 32.0 °F 30% 29.96 in 10.0 mi South 15.0 mph 23.0 mph N/A   Clear
5:15 PM 64.4 °F - 32.0 °F 30% 29.95 in 10.0 mi South 16.1 mph 21.9 mph N/A   Clear
5:35 PM 64.4 °F - 32.0 °F 30% 29.95 in 10.0 mi South 12.7 mph 21.9 mph N/A   Clear
5:55 PM 62.6 °F - 32.0 °F 32% 29.95 in 10.0 mi South 13.8 mph 20.7 mph N/A   Clear
6:15 PM 62.6 °F - 32.0 °F 32% 29.95 in 10.0 mi South 10.4 mph - N/A   Clear
6:35 PM 60.8 °F - 32.0 °F 34% 29.94 in 10.0 mi South 9.2 mph - N/A   Clear
6:55 PM 60.8 °F - 32.0 °F 34% 29.93 in 10.0 mi South 9.2 mph - N/A   Clear
7:15 PM 59.0 °F - 32.0 °F 36% 29.93 in 10.0 mi South 10.4 mph - N/A   Clear
7:35 PM 59.0 °F - 32.0 °F 36% 29.93 in 10.0 mi South 10.4 mph - N/A   Clear
7:55 PM 59.0 °F - 32.0 °F 36% 29.92 in 10.0 mi South 10.4 mph - N/A   Clear
8:15 PM 59.0 °F - 32.0 °F 36% 29.91 in 10.0 mi SSE 10.4 mph 16.1 mph N/A   Clear
8:35 PM 59.0 °F - 33.8 °F 39% 29.90 in 10.0 mi South 12.7 mph 18.4 mph N/A   Clear
8:55 PM 59.0 °F - 35.6 °F 42% 29.91 in 10.0 mi South 12.7 mph 20.7 mph N/A   Clear
9:15 PM 59.0 °F - 35.6 °F 42% 29.90 in 10.0 mi South 16.1 mph 26.5 mph N/A   Clear
9:35 PM 59.0 °F - 37.4 °F 45% 29.90 in 10.0 mi South 16.1 mph 26.5 mph N/A   Clear
9:55 PM 59.0 °F - 37.4 °F 45% 29.90 in 10.0 mi South 16.1 mph 23.0 mph N/A   Clear
10:15 PM 57.2 °F - 37.4 °F 48% 29.91 in 10.0 mi South 19.6 mph 26.5 mph N/A   Clear
10:35 PM 57.2 °F - 39.2 °F 51% 29.91 in 10.0 mi South 15.0 mph 19.6 mph N/A   Clear
10:55 PM 55.4 °F - 39.2 °F 54% 29.90 in 10.0 mi South 15.0 mph 18.4 mph N/A   Clear
11:15 PM 55.4 °F - 39.2 °F 54% 29.89 in 10.0 mi South 15.0 mph 24.2 mph N/A   Clear
11:35 PM 55.4 °F - 39.2 °F 54% 29.90 in 10.0 mi South 10.4 mph 21.9 mph N/A   Clear
11:55 PM 55.4 °F - 39.2 °F 54% 29.89 in 10.0 mi South 12.7 mph 20.7 mph N/A   Clear